Location: Delettes
(50.6178°N, 2.2123°E)
Time: 18:35:42
(UTC+00:00)

STARLINK-1022 - Pass Details

Date: 27 February 2020
Orbit: 548 x 551 km, 53.0° (Epoch: 01 April)

Event Time Altitude Azimuth Distance (km) Brightness Sun altitude
Rises 18:53:32 0° 231° (SW) 2,708 7.9 -14.3°
Maximum altitude 18:59:49 54° 150° (SSE) 672 3.8 -15.3°
Enters shadow 19:01:37 29° 87° (E) 1,014 4.4 -15.6°
